Tiempo atmosférico en la estación meteorológica de Villablino, León (958 m.)



Fecha
DESCASC
Temp. máxima en grados centígrados (hora)
DESCASC
Temp. mínima en grados centígrados (hora)
DESCASC
Temp. media en grados centígrados
DESCASC
Racha de viento máxima en m/sg (hora)
DESCASC
Velocidad máxima media en intervalos de 10 minutos(hora)
DESCASC
Precipitaciones diarias en mm
DESCASC
Precipitaciones de 00:00 a 06:00 en mm
DESCASC
Precipitaciones de 06:00 a 12:00 en mm
DESCASC
Precipitaciones de 12:00 a 18:00 en mm
DESCASC
Precipitaciones de 18:00 a 24:00 en mm
DESCASC
15-08-2019 27 (17:30) 6.9 (07:10) 17 7.5 (18:40) 3.89 (18:30) 0 0 0 0 0
14-08-2019 25.7 (13:20) 6.9 (00:00) 16.3 8.61 (17:10) 4.44 (17:10) 0 0 0 0 0
13-08-2019 26 (17:50) 7.2 (00:00) 16.6 6.67 (19:20) 4.72 (16:20) 0 0 0 0 0
12-08-2019 19.9 (16:10) 7.6 (00:00) 13.7 8.06 (11:30) 4.17 (20:20) 0 0 0 0 0
11-08-2019 20.6 (14:30) 8.5 (00:00) 14.6 13.33 (16:40) 6.67 (16:40) 0.2 0 0 0 0.2
10-08-2019 24.1 (17:50) 8.3 (00:00) 16.2 8.33 (16:10) 5.28 (02:50) 0 0 0 0 0
09-08-2019 21 (00:20) 13 (00:00) 17 17.22 (06:10) 9.72 (13:20) 3.6 2.8 0.8 0 0
08-08-2019 24 (16:00) 15.8 (00:00) 19.9 16.11 (23:20) 6.94 (23:20) 5.4 1.4 0.2 2.2 1.6
07-08-2019 22.6 (14:30) 9 (00:00) 15.8 -- (--) -- (--) -- 0 -- 0.6 0.2
06-08-2019 26.6 (14:00) 10.3 (00:00) 18.5 10.56 (17:50) 6.67 (18:00) 0 0 0 0 0
05-08-2019 29.6 (16:40) 8 (00:00) 18.8 9.44 (17:10) 4.72 (15:30) 0 0 0 0 0
04-08-2019 29.8 (17:00) 11 (00:00) 20.4 11.67 (15:30) 6.39 (15:30) 0 0 0 0 0
03-08-2019 31.5 (16:50) 11 (00:00) 21.3 10.83 (17:30) 5 (21:20) 0 0 0 0 0
02-08-2019 30.6 (16:50) 7.5 (00:00) 19.1 6.67 (18:00) 4.17 (18:20) 0 0 0 0 0
01-08-2019 27.4 (13:10) 7.7 (00:00) 17.5 9.17 (17:30) 5.83 (17:20) 0 0 0 0 0
31-07-2019 25.4 (14:10) 10.4 (00:00) 17.9 10.28 (18:20) 7.22 (18:20) 0 0 0 0 0
30-07-2019 21.1 (15:30) 8.9 (00:00) 15 7.22 (18:00) 4.17 (18:30) 0 0 0 0 0
29-07-2019 21.1 (15:10) 8.2 (00:00) 14.7 13.61 (13:00) 8.33 (10:00) 0 0 0 0 0
28-07-2019 25.9 (18:40) 4.9 (00:00) 15.4 8.89 (13:40) 5 (12:30) 0 0 0 0 0
27-07-2019 20.9 (14:20) 11 (00:00) 15.9 8.06 (15:00) 4.72 (15:00) 6.8 4 2.6 0.2 0
26-07-2019 21.3 (14:50) 12.3 (00:00) 16.8 8.61 (19:40) 5 (19:20) 0 0 0 0 0
25-07-2019 28.6 (14:30) 9.9 (00:00) 19.3 11.39 (16:20) 6.39 (16:00) 9.4 0 0 0 9.4
24-07-2019 32.3 (17:20) 12.5 (00:00) 22.4 8.61 (13:30) 4.17 (13:30) 0 0 0 0 0
23-07-2019 32.7 (18:10) 12.4 (00:00) 22.6 13.06 (21:00) 6.11 (21:00) 6.6 0.2 0 0 6.4
22-07-2019 36 (15:10) 11.3 (00:00) 23.7 10.56 (22:10) 4.44 (22:10) 1.2 0 0 0.2 1
21-07-2019 31.7 (16:20) 12.8 (00:00) 22.3 9.72 (16:40) 6.11 (17:50) 0 0 0 0 0
20-07-2019 30.1 (16:10) 11 (00:00) 20.6 11.67 (19:50) 6.67 (20:00) 0 0 0 0 0
19-07-2019 31.4 (16:30) 7.8 (00:00) 19.6 12.5 (17:00) 6.67 (17:00) 0 0 0 0 0

Gráficas

Temp. máximas Temp. mínimas Temp. medias Precipitaciones Rachas de viento máximas Velocidades máximas media en intervalos de 10 minutos

Datos horarios

Fecha y hora oficial Temperatura (ºC) Velocidad del viento (km/h) Dirección del viento Racha (km/h) Dirección de racha Precipitación (mm) Presión (hPa) Tendencia (hPa) Humedad (%)
2019-08-17 23:00:00 16.5 2 Nordeste 8 Oeste 0 -- -- 74
2019-08-17 22:00:00 17.8 3 Norte 8 Nordeste 0 -- -- 69
2019-08-17 21:00:00 21.4 5 Noroeste 25 Sur 0 -- -- 49
2019-08-17 20:00:00 22.9 8 Oeste 42 Oeste 0 -- -- 46
2019-08-17 19:00:00 28.1 10 Sudoeste 45 Sur 0 -- -- 34
2019-08-17 18:00:00 28.7 25 Sur 47 Sur 0 -- -- 35
2019-08-17 17:00:00 29.1 19 Sur 40 Sur 0 -- -- 36
2019-08-17 16:00:00 28.1 22 Sur 36 Sur 0 -- -- 40
2019-08-17 15:00:00 27.9 19 Sur 31 Sur 0 -- -- 40
2019-08-17 14:00:00 26.8 18 Sudoeste 28 Sur 0 -- -- 44
2019-08-17 13:00:00 25.7 13 Sudoeste 23 Sur 0 -- -- 43
2019-08-17 12:00:00 23.7 3 Este 7 Sur 0 -- -- 50
2019-08-17 11:00:00 20.8 3 Sudeste 6 Sur 0 -- -- 56
2019-08-17 10:00:00 18.2 3 Sudeste 6 Sudeste 0 -- -- 62
2019-08-17 09:00:00 13.9 2 Norte 7 Norte 0 -- -- 76
2019-08-17 08:00:00 8.4 4 Norte 8 Norte 0 -- -- 96
2019-08-17 07:00:00 8.5 3 Norte 7 Norte 0 -- -- 96
2019-08-17 06:00:00 8.9 4 Norte 12 Norte 0 -- -- 95
2019-08-17 05:00:00 9.5 5 Norte 6 Norte 0 -- -- 94
2019-08-17 04:00:00 10.6 6 Nordeste 9 Norte 0 -- -- 93
2019-08-17 03:00:00 11.1 0 Calma 6 Norte 0 -- -- 91
2019-08-17 02:00:00 12.6 4 Nordeste 9 Norte 0 -- -- 86
2019-08-17 01:00:00 13.9 3 Norte 8 Norte 0 -- -- 80
2019-08-17 00:00:00 15.2 4 Nordeste 8 Nordeste 0 -- -- 78
2019-08-16 23:00:00 17 3 Este 8 Sur 0 -- -- 75
2019-08-16 22:00:00 18.5 4 Sur 14 Noroeste 0 -- -- 64
2019-08-16 21:00:00 22.8 10 Noroeste 21 Noroeste 0 -- -- 47
2019-08-16 20:00:00 24 13 Noroeste 27 Noroeste 0 -- -- 40
2019-08-16 19:00:00 26.6 11 Noroeste 24 Noroeste 0 -- -- 34
2019-08-16 18:00:00 30.6 7 Oeste 31 Sur 0 -- -- 30
2019-08-16 17:00:00 30 16 Sur 31 Sur 0 -- -- 32
2019-08-16 16:00:00 29.6 14 Sur 28 Sudoeste 0 -- -- 33
2019-08-16 15:00:00 29 17 Sudoeste 29 Sur 0 -- -- 29
2019-08-16 14:00:00 28.4 12 Sudoeste 24 Sudoeste 0 -- -- 31
2019-08-16 13:00:00 26.1 4 Sudoeste 9 Sur 0 -- -- 42
2019-08-16 12:00:00 22.8 3 Sur 6 Sur 0 -- -- 55
2019-08-16 11:00:00 19.5 3 Sudeste 6 Sur 0 -- -- 60
2019-08-16 10:00:00 16.9 3 Sudeste 6 Sudeste 0 -- -- 67
2019-08-16 09:00:00 12.6 3 Norte 6 Norte 0 -- -- 79
2019-08-16 08:00:00 7.7 2 Nordeste 6 Norte 0 -- -- 99
2019-08-16 07:00:00 7.7 3 Norte 5 Norte 0 -- -- 98
2019-08-16 06:00:00 8.3 3 Norte 6 Norte 0 -- -- 98
2019-08-16 05:00:00 8.9 4 Norte 8 Norte 0 -- -- 97
2019-08-16 04:00:00 9.7 0 Calma 6 Norte 0 -- -- 96
2019-08-16 03:00:00 10.5 3 Norte 6 Norte 0 -- -- 95
2019-08-16 02:00:00 11.3 5 Norte 9 Nordeste 0 -- -- 91
2019-08-16 01:00:00 12.4 0 Calma 9 Norte 0 -- -- 88
2019-08-16 00:00:00 13.6 5 Norte 11 Norte 0 -- -- 86
2019-08-15 23:00:00 15.7 4 Noroeste 11 Norte 0 -- -- 85
2019-08-15 22:00:00 18.1 3 Sudoeste 21 Noroeste 0 -- -- 77
2019-08-15 21:00:00 20.3 10 Noroeste 26 Noroeste 0 -- -- 69
2019-08-15 20:00:00 20.9 12 Norte 27 Noroeste 0 -- -- 65
2019-08-15 19:00:00 24.1 11 Noroeste 27 Noroeste 0 -- -- 54
2019-08-15 18:00:00 26.6 11 Norte 24 Noroeste 0 -- -- 48
2019-08-15 17:00:00 26.7 10 Norte 21 Noroeste 0 -- -- 46
2019-08-15 16:00:00 25.4 12 Noroeste 27 Noroeste 0 -- -- 47
2019-08-15 15:00:00 26.5 10 Norte 22 Norte 0 -- -- 45
2019-08-15 14:00:00 26.3 11 Norte 20 Noroeste 0 -- -- 44
2019-08-15 13:00:00 25.7 5 Sudeste 8 Sur 0 -- -- 46
2019-08-15 12:00:00 22.6 3 Sudeste 5 Sur 0 -- -- 45
2019-08-15 11:00:00 19.3 3 Sudeste 7 Sur 0 -- -- 49
2019-08-15 10:00:00 16.4 3 Sudeste 6 Este 0 -- -- 59
2019-08-15 09:00:00 12.3 3 Norte 6 Nordeste 0 -- -- 70
2019-08-15 08:00:00 7.3 4 Norte 6 Norte 0 -- -- 94
2019-08-15 07:00:00 7 4 Norte 7 Norte 0 -- -- 93
2019-08-15 06:00:00 7.6 3 Norte 7 Norte 0 -- -- 92
2019-08-15 05:00:00 8 3 Norte 6 Norte 0 -- -- 93
2019-08-15 04:00:00 8.9 3 Norte 6 Norte 0 -- -- 95
2019-08-15 03:00:00 10.6 4 Norte 6 Norte 0 -- -- 95
2019-08-15 02:00:00 12.4 3 Norte 8 Nordeste 0 -- -- 94
2019-08-15 01:00:00 13.7 2 Nordeste 6 Norte 0 -- -- 95
2019-08-15 00:00:00 14.8 3 Sudoeste 7 Sudoeste 0 -- -- 90
2019-08-14 23:00:00 16.2 2 Sudoeste 9 Sudoeste 0 -- -- 86
2019-08-14 22:00:00 19.1 6 Noroeste 23 Oeste 0 -- -- 72
2019-08-14 21:00:00 20.3 7 Noroeste 24 Noroeste 0 -- -- 68
2019-08-14 20:00:00 21 12 Norte 26 Noroeste 0 -- -- 67
2019-08-14 19:00:00 22.7 13 Norte 23 Norte 0 -- -- 63
2019-08-14 18:00:00 25.5 15 Noroeste 31 Norte 0 -- -- 54
2019-08-14 17:00:00 23.8 11 Norte 24 Norte 0 -- -- 57
2019-08-14 16:00:00 24.4 6 Norte 27 Norte 0 -- -- 54
2019-08-14 15:00:00 23.3 14 Norte 25 Noroeste 0 -- -- 57
2019-08-14 14:00:00 24 15 Norte 27 Norte 0 -- -- 54
2019-08-14 13:00:00 24.8 8 Sur 10 Sur 0 -- -- 48
2019-08-14 12:00:00 22.4 3 Sudoeste 6 Sur 0 -- -- 49
2019-08-14 11:00:00 18.9 3 Sur 7 Sur 0 -- -- 57
2019-08-14 10:00:00 15.9 4 Sur 8 Sudeste 0 -- -- 66
2019-08-14 09:00:00 12.7 2 Sudeste 7 Nordeste 0 -- -- 74
2019-08-14 08:00:00 7.4 6 Norte 8 Norte 0 -- -- 95
2019-08-14 07:00:00 7.4 3 Norte 8 Norte 0 -- -- 95
2019-08-14 06:00:00 7.7 4 Norte 8 Norte 0 -- -- 95
2019-08-14 05:00:00 8.4 4 Norte 7 Nordeste 0 -- -- 94
2019-08-14 04:00:00 9.3 5 Norte 9 Nordeste 0 -- -- 94
2019-08-14 03:00:00 10.2 3 Norte 10 Norte 0 -- -- 93
2019-08-14 02:00:00 10.8 5 Norte 14 Norte 0 -- -- 92
2019-08-14 01:00:00 12.3 7 Norte 11 Norte 0 -- -- 87
2019-08-14 00:00:00 13.3 5 Nordeste 8 Nordeste 0 -- -- 87
2019-08-13 23:00:00 14.2 2 Noroeste 12 Nordeste 0 -- -- 84
2019-08-13 22:00:00 16.6 10 Norte 23 Noroeste 0 -- -- 73
2019-08-13 21:00:00 18.3 13 Noroeste 24 Noroeste 0 -- -- 65
2019-08-13 20:00:00 19.6 12 Noroeste 24 Noroeste 0 -- -- 58
2019-08-13 19:00:00 23.2 12 Noroeste 21 Norte 0 -- -- 42
2019-08-13 18:00:00 25.8 8 Oeste 23 Sudoeste 0 -- -- 37
2019-08-13 17:00:00 25.3 12 Sudoeste 23 Sur 0 -- -- 33
2019-08-13 16:00:00 24.7 14 Sudoeste 24 Sur 0 -- -- 29
2019-08-13 15:00:00 24.2 14 Sudoeste 23 Sur 0 -- -- 34
2019-08-13 14:00:00 23 11 Sudoeste 17 Sudoeste 0 -- -- 41
2019-08-13 13:00:00 21.8 6 Sur 10 Sur 0 -- -- 43
2019-08-13 12:00:00 18.1 3 Sudeste 6 Sur 0 -- -- 56
2019-08-13 11:00:00 15.6 4 Sudeste 9 Este 0 -- -- 63
2019-08-13 10:00:00 11.5 3 Nordeste 8 Nordeste 0 -- -- 77
2019-08-13 09:00:00 9.7 4 Nordeste 10 Nordeste 0 -- -- 84
2019-08-13 08:00:00 9.2 6 Norte 11 Norte 0 -- -- 85
2019-08-13 07:00:00 9.4 4 Norte 8 Norte 0 -- -- 87
2019-08-13 06:00:00 8.7 2 Norte 4 Norte 0 -- -- 90
2019-08-13 05:00:00 7.9 3 Norte 8 Norte 0 -- -- 92
2019-08-13 04:00:00 7.2 3 Norte 10 Norte 0 -- -- 94
2019-08-13 03:00:00 8.4 4 Norte 13 Norte 0 -- -- 90
2019-08-13 02:00:00 10.1 8 Norte 12 Norte 0 -- -- 88
2019-08-13 01:00:00 11.5 7 Norte 12 Norte 0 -- -- 82
2019-08-13 00:00:00 12 6 Norte 13 Noroeste 0 -- -- 81
2019-08-12 23:00:00 12.7 7 Norte 28 Noroeste 0 -- -- 75
2019-08-12 22:00:00 13 13 Noroeste 25 Noroeste 0 -- -- 74
2019-08-12 21:00:00 13.8 9 Noroeste 25 Noroeste 0 -- -- 70
2019-08-12 20:00:00 14.8 9 Noroeste 17 Noroeste 0 -- -- 62
2019-08-12 19:00:00 18.1 10 Norte 21 Noroeste 0 -- -- 49
2019-08-12 18:00:00 15.9 11 Noroeste 23 Noroeste 0 -- -- 55
2019-08-12 17:00:00 17.2 13 Noroeste 27 Norte 0 -- -- 47
2019-08-12 16:00:00 19.5 11 Noroeste 20 Noroeste 0 -- -- 42
2019-08-12 15:00:00 19.1 10 Noroeste 22 Noroeste 0 -- -- 42
2019-08-12 14:00:00 17.5 9 Norte 23 Norte 0 -- -- 43
2019-08-12 13:00:00 17.2 9 Noroeste 23 Noroeste 0 -- -- 46
2019-08-12 12:00:00 15.4 12 Noroeste 29 Noroeste 0 -- -- 50
2019-08-12 11:00:00 14.1 11 Noroeste 25 Noroeste 0 -- -- 55
2019-08-12 10:00:00 12.4 8 Noroeste 18 Noroeste 0 -- -- 65
2019-08-12 09:00:00 12.9 5 Nordeste 10 Nordeste 0 -- -- 65
2019-08-12 08:00:00 9.5 0 Calma 6 Nordeste 0 -- -- 79
2019-08-12 07:00:00 8.9 3 Norte 8 Norte 0 -- -- 89
2019-08-12 06:00:00 8.4 3 Norte 6 Norte 0 -- -- 90
2019-08-12 05:00:00 7.9 3 Norte 10 Norte 0 -- -- 91
2019-08-12 04:00:00 7.7 4 Norte 9 Norte 0 -- -- 91
2019-08-12 03:00:00 8 4 Norte 8 Nordeste 0 -- -- 89
2019-08-12 02:00:00 8.4 4 Nordeste 8 Norte 0 -- -- 88
2019-08-12 01:00:00 8.3 3 Norte 8 Norte 0 -- -- 89
2019-08-12 00:00:00 8.9 2 Nordeste 9 Sur 0 -- -- 86
2019-08-11 23:00:00 8.7 3 Norte 9 Norte 0 -- -- 85
2019-08-11 22:00:00 10.4 9 Norte 14 Norte 0 -- -- 79
2019-08-11 21:00:00 12.8 7 Noroeste 15 Norte 0 -- -- 67
2019-08-11 20:00:00 13.9 3 Noroeste 9 Noroeste 0 -- -- 67
2019-08-11 19:00:00 13.7 5 Noroeste 25 Noroeste 0.2 -- -- 69
2019-08-11 18:00:00 13.1 9 Norte 37 Nordeste 0 -- -- 73
2019-08-11 17:00:00 15.8 17 Norte 48 Norte 0 -- -- 57
2019-08-11 16:00:00 19 9 Norte 25 Noroeste 0 -- -- 39
2019-08-11 15:00:00 19.1 9 Norte 26 Noroeste 0 -- -- 40
2019-08-11 14:00:00 18.4 9 Norte 28 Norte 0 -- -- 46
2019-08-11 13:00:00 18.3 8 Noroeste 23 Nordeste 0 -- -- 47
2019-08-11 12:00:00 16.2 10 Norte 24 Norte 0 -- -- 56
2019-08-11 11:00:00 15.2 9 Noroeste 17 Noroeste 0 -- -- 64
2019-08-11 10:00:00 13.6 8 Noroeste 23 Noroeste 0 -- -- 68
2019-08-11 09:00:00 14.2 12 Norte 22 Norte 0 -- -- 71
2019-08-11 08:00:00 12 2 Norte 8 Norte 0 -- -- 86
2019-08-11 07:00:00 12 6 Norte 14 Noroeste 0 -- -- 83
2019-08-11 06:00:00 12 3 Norte 10 Norte 0 -- -- 88
2019-08-11 05:00:00 12.4 6 Norte 20 Norte 0 -- -- 83
2019-08-11 04:00:00 12.6 9 Norte 18 Noroeste 0 -- -- 84
2019-08-11 03:00:00 12.7 4 Noroeste 21 Norte 0 -- -- 85
2019-08-11 02:00:00 13.6 9 Noroeste 20 Noroeste 0 -- -- 80
2019-08-11 01:00:00 13.5 7 Norte 15 Norte 0 -- -- 83
2019-08-11 00:00:00 14.2 11 Noroeste 22 Noroeste 0 -- -- 78
2019-08-10 23:00:00 14.5 11 Norte 24 Norte 0 -- -- 80
2019-08-10 22:00:00 15.6 9 Noroeste 18 Oeste 0 -- -- 72
2019-08-10 21:00:00 16.6 9 Noroeste 21 Noroeste 0 -- -- 68
2019-08-10 20:00:00 17.5 11 Noroeste 25 Noroeste 0 -- -- 65
2019-08-10 19:00:00 18.9 16 Noroeste 27 Norte 0 -- -- 58
2019-08-10 18:00:00 22.8 10 Sudoeste 28 Sur 0 -- -- 41
2019-08-10 17:00:00 23 15 Sur 30 Sudoeste 0 -- -- 39
2019-08-10 16:00:00 22.9 14 Sur 27 Sudoeste 0 -- -- 33
2019-08-10 15:00:00 22.2 17 Sur 28 Sur 0 -- -- 38
2019-08-10 14:00:00 20.9 14 Sur 20 Sudoeste 0 -- -- 46
2019-08-10 13:00:00 20 12 Sur 18 Sudoeste 0 -- -- 49
2019-08-10 12:00:00 19.3 8 Sur 13 Sur 0 -- -- 51
2019-08-10 11:00:00 18.3 4 Este 9 Norte 0 -- -- 56
2019-08-10 10:00:00 15.2 2 Oeste 5 Noroeste 0 -- -- 66
2019-08-10 09:00:00 14.1 3 Este 8 Nordeste 0 -- -- 68
2019-08-10 08:00:00 8.9 3 Norte 10 Norte 0 -- -- 89
2019-08-10 07:00:00 8.8 5 Norte 12 Sudoeste 0 -- -- 89
2019-08-10 06:00:00 11.6 5 Sudoeste 19 Sudoeste 0 -- -- 78
2019-08-10 05:00:00 13 13 Sudoeste 26 Sudoeste 0 -- -- 72
2019-08-10 04:00:00 13.2 6 Sudoeste 28 Sudoeste 0 -- -- 76
2019-08-10 03:00:00 13.7 16 Sudoeste 30 Sudoeste 0 -- -- 75
2019-08-10 02:00:00 13.5 8 Oeste 22 Sudoeste 0 -- -- 74
2019-08-10 01:00:00 12.6 5 Noroeste 13 Oeste 0 -- -- 80
2019-08-10 00:00:00 13 6 Noroeste 24 Sur 0 -- -- 76
2019-08-09 23:00:00 15.4 11 Sur 24 Sur 0 -- -- 67
2019-08-09 22:00:00 15.1 9 Sudoeste 27 Sur 0 -- -- 68
2019-08-09 21:00:00 16.3 14 Sur 37 Sudoeste 0 -- -- 65
2019-08-09 20:00:00 17.4 21 Sur 52 Sur 0 -- -- 61
2019-08-09 19:00:00 17.8 22 Sur 44 Sur 0 -- -- 62
2019-08-09 18:00:00 18.6 21 Sur 51 Sur 0 -- -- 61
2019-08-09 17:00:00 18.8 19 Sudoeste 48 Sudoeste 0 -- -- 59
2019-08-09 16:00:00 19.8 25 Sudoeste 60 Sur 0 -- -- 55
2019-08-09 15:00:00 19.8 30 Sudoeste 56 Sudoeste 0 -- -- 56
2019-08-09 14:00:00 19.5 23 Sur 55 Sur 0 -- -- 57
2019-08-09 13:00:00 18.9 28 Sur 54 Sur -- -- -- 57
2019-08-09 12:00:00 18.3 26 Sur 59 Sur 0 -- -- 61
2019-08-09 11:00:00 16.8 22 Sur 52 Sur 0 -- -- 65
2019-08-09 10:00:00 16.5 28 Sur 45 Sur 0 -- -- 65
2019-08-09 09:00:00 16 26 Sudoeste 54 Sur 0 -- -- 68
2019-08-09 08:00:00 16.7 23 Sudoeste 60 Sudoeste 0.2 -- -- 71
2019-08-09 07:00:00 16.8 27 Sur 62 Sudoeste 0.6 -- -- 88
2019-08-09 06:00:00 17.8 29 Sur 48 Sudoeste 2.2 -- -- 92
2019-08-09 05:00:00 19.3 16 Sudoeste 49 Sur 0 -- -- 83
2019-08-09 04:00:00 18.7 22 Sudoeste 44 Sur 0.4 -- -- 87
2019-08-09 03:00:00 19.2 20 Sudoeste 53 Sudoeste 0.2 -- -- 82
2019-08-09 02:00:00 20.4 26 Sudoeste 56 Sudoeste 0 -- -- 75
2019-08-09 01:00:00 20.6 24 Sudoeste 55 Sur 0 -- -- 72
2019-08-09 00:00:00 20.9 22 Sudoeste 58 Sur 0 -- -- 72
2019-08-08 23:00:00 20.2 10 Oeste 41 Sur 0 -- -- 75
2019-08-08 22:00:00 20.5 21 Sudoeste 41 Sudoeste 0 -- -- 70
2019-08-08 21:00:00 20.5 10 Sur 42 Sur 0 -- -- 72
2019-08-08 20:00:00 20.6 22 Sudoeste 52 Sur 1.6 -- -- 82
2019-08-08 19:00:00 21.9 5 Sudoeste 32 Sur 0 -- -- 78
2019-08-08 18:00:00 21.8 14 Sudoeste 34 Sudoeste 0 -- -- 80
2019-08-08 17:00:00 21.6 10 Sudoeste 33 Sur 0.6 -- -- 84
2019-08-08 16:00:00 24 8 Sur 25 Sur 0.2 -- -- 75
2019-08-08 15:00:00 21 6 Sudoeste 23 Sudoeste 0.8 -- -- 88
2019-08-08 14:00:00 20.7 14 Sudoeste 35 Sur 0.6 -- -- 85
2019-08-08 13:00:00 21.8 14 Sudoeste 30 Sudoeste 0 -- -- 73
2019-08-08 12:00:00 20.5 9 Sur 17 Sur 0 -- -- 81
2019-08-08 11:00:00 19.2 8 Sur 14 Sur 0.2 -- -- 87
2019-08-08 10:00:00 19.6 6 Sur 39 Sur 0 -- -- 81
2019-08-08 09:00:00 19.1 20 Sudoeste 35 Sudoeste 0 -- -- 78
2019-08-08 08:00:00 17.5 9 Sudoeste 18 Sudoeste 0 -- -- 87
2019-08-08 07:00:00 16.9 5 Este 27 Sudoeste 0 -- -- 91
2019-08-08 06:00:00 17.1 20 Sudoeste 32 Sudoeste 0 -- -- 90
2019-08-08 05:00:00 17.2 19 Sur 31 Sur 0 -- -- 88
2019-08-08 04:00:00 16 4 Sur 17 Sur 0 -- -- 96
2019-08-08 03:00:00 16.3 12 Sudoeste 27 Sur 0.4 -- -- 92
2019-08-08 02:00:00 16.1 18 Sur 31 Sur 0.4 -- -- 94
2019-08-08 01:00:00 15.8 7 Sudoeste 16 Sur 0.6 -- -- 95
2019-08-08 00:00:00 16.9 7 Sudoeste 34 Sudoeste 0 -- -- 86
2019-08-07 23:00:00 17.4 19 Sudoeste 35 Sudoeste 0 -- -- 83
2019-08-07 22:00:00 16.6 6 Sudoeste 24 Sudoeste 0 -- -- 89
2019-08-07 21:00:00 17 9 Sudoeste 22 Sudoeste 0.2 -- -- 87
2019-08-07 20:00:00 17.1 10 Sudoeste 25 Sur 0 -- -- 89
2019-08-07 19:00:00 17.2 8 Sudoeste 23 Sudoeste 0 -- -- 88
2019-08-07 18:00:00 17.2 8 Sur 18 Sur 0.4 -- -- 91
2019-08-07 17:00:00 17.3 11 Sudoeste 34 Sur 0.2 -- -- 85
2019-08-07 16:00:00 20.9 10 Sur 27 Sur 0 -- -- 62
2019-08-07 15:00:00 21.8 7 Oeste 33 Sur 0 -- -- 55
2019-08-07 14:00:00 22.5 18 Sur 31 Sur 0 -- -- 51
2019-08-07 13:00:00 21.8 13 Sur 26 Sur 0 -- -- 55
2019-08-07 12:00:00 21.6 4 Norte 14 Noroeste 0 -- -- 57
2019-08-07 11:00:00 19.4 4 Sudeste 10 Sudoeste 0 -- -- 62
2019-08-07 10:00:00 16.8 3 Sudeste -- -- -- -- -- 71
2019-08-07 09:00:00 11.6 3 Norte 6 Norte 0 -- -- 91
2019-08-07 08:00:00 10.1 4 Norte 6 Norte 0 -- -- 96
2019-08-07 07:00:00 9.2 4 Norte 8 Norte 0 -- -- 98
2019-08-07 06:00:00 9.4 4 Norte 9 Nordeste 0 -- -- 97
2019-08-07 05:00:00 10.5 5 Norte 8 Norte 0 -- -- 96
2019-08-07 04:00:00 11.2 5 Norte 8 Norte 0 -- -- 94
2019-08-07 03:00:00 12.2 5 Norte 9 Norte 0 -- -- 92
2019-08-07 02:00:00 12.4 6 Norte 10 Norte 0 -- -- 92
2019-08-07 01:00:00 13.1 3 Noroeste 10 Norte 0 -- -- 91
2019-08-07 00:00:00 14.4 6 Norte 11 Norte 0 -- -- 88
2019-08-06 23:00:00 15.3 5 Norte 8 Norte 0 -- -- 87
2019-08-06 22:00:00 16.1 3 Noroeste 12 Noroeste 0 -- -- 84
2019-08-06 21:00:00 16.6 6 Norte 20 Noroeste 0 -- -- 83
2019-08-06 20:00:00 17.6 10 Norte 19 Noroeste 0 -- -- 80
2019-08-06 19:00:00 17.9 12 Noroeste 36 Noroeste 0 -- -- 80
2019-08-06 18:00:00 19.5 24 Noroeste 38 Norte 0 -- -- 73
2019-08-06 17:00:00 23.4 15 Noroeste 27 Noroeste 0 -- -- 60
2019-08-06 16:00:00 25 10 Sur 28 Sur 0 -- -- 40
2019-08-06 15:00:00 26 15 Sur 29 Sudoeste 0 -- -- 37
2019-08-06 14:00:00 26.6 14 Sur 33 Sur 0 -- -- 39
2019-08-06 13:00:00 24.9 14 Sur 29 Sur 0 -- -- 43
2019-08-06 12:00:00 22.8 3 Oeste 6 Sudeste 0 -- -- 62
2019-08-06 11:00:00 19.9 3 Sudeste 7 Sur 0 -- -- 66
2019-08-06 10:00:00 18.4 3 Sudeste 5 Este 0 -- -- 69
2019-08-06 09:00:00 13 3 Norte 9 Norte 0 -- -- 88
2019-08-06 08:00:00 10.8 2 Norte 6 Norte 0 -- -- 97
2019-08-06 07:00:00 10.5 4 Norte 7 Norte 0 -- -- 98
2019-08-06 06:00:00 10.9 2 Norte 7 Nordeste 0 -- -- 97
2019-08-06 05:00:00 11.5 3 Nordeste 6 Norte 0 -- -- 97
2019-08-06 04:00:00 12.2 4 Nordeste 8 Norte 0 -- -- 95
2019-08-06 03:00:00 13 4 Norte 9 Norte 0 -- -- 94
2019-08-06 02:00:00 13.9 6 Norte 9 Noroeste 0 -- -- 92
2019-08-06 01:00:00 14.7 4 Norte 10 Nordeste 0 -- -- 92
2019-08-06 00:00:00 16.2 3 Noroeste 9 Norte 0 -- -- 89
2019-08-05 23:00:00 17.6 0 Calma 21 Noroeste 0 -- -- 82
2019-08-05 22:00:00 19.7 10 Norte 28 Noroeste 0 -- -- 74
2019-08-05 21:00:00 21.1 12 Noroeste 28 Noroeste 0 -- -- 70
2019-08-05 20:00:00 22.6 11 Noroeste 28 Noroeste 0 -- -- 63
2019-08-05 19:00:00 27 9 Noroeste 26 Noroeste 0 -- -- 49
2019-08-05 18:00:00 27.9 9 Noroeste 34 Norte 0 -- -- 44
2019-08-05 17:00:00 29.6 9 Sur 27 Sur 0 -- -- 36
2019-08-05 16:00:00 28.7 15 Sur 27 Sur 0 -- -- 36
2019-08-05 15:00:00 28.3 17 Sudoeste 23 Sur 0 -- -- 38
2019-08-05 14:00:00 27.4 13 Sur 19 Sur 0 -- -- 40
2019-08-05 13:00:00 26.2 4 Sur 8 Sur 0 -- -- 40
2019-08-05 12:00:00 21.8 5 Sur 8 Sur 0 -- -- 53
2019-08-05 11:00:00 19.9 3 Sur 6 Sur 0 -- -- 56
2019-08-05 10:00:00 17.5 3 Sudeste 9 Nordeste 0 -- -- 62
2019-08-05 09:00:00 12.9 5 Nordeste 9 Nordeste 0 -- -- 75
2019-08-05 08:00:00 8.6 5 Norte 8 Noroeste 0 -- -- 97
2019-08-05 07:00:00 8.2 4 Norte 9 Norte 0 -- -- 96
2019-08-05 06:00:00 9 6 Norte 9 Norte 0 -- -- 95
2019-08-05 05:00:00 9.9 6 Norte 8 Norte 0 -- -- 95
2019-08-05 04:00:00 10.6 3 Norte 10 Norte 0 -- -- 95
2019-08-05 03:00:00 11.7 6 Norte 9 Norte 0 -- -- 93
2019-08-05 02:00:00 12.9 4 Norte 7 Este 0 -- -- 93
2019-08-05 01:00:00 14.2 6 Norte 12 Nordeste 0 -- -- 89
2019-08-05 00:00:00 15.9 4 Nordeste 11 Norte 0 -- -- 84
2019-08-04 23:00:00 17.6 3 Oeste 26 Noroeste 0 -- -- 82
2019-08-04 22:00:00 18.7 14 Noroeste 33 Noroeste 0 -- -- 78
2019-08-04 21:00:00 20.1 17 Norte 27 Noroeste 0 -- -- 72
2019-08-04 20:00:00 21.7 12 Noroeste 26 Noroeste 0 -- -- 66
2019-08-04 19:00:00 26 12 Noroeste 28 Norte 0 -- -- 53
2019-08-04 18:00:00 27.2 12 Norte 32 Noroeste 0 -- -- 51
2019-08-04 17:00:00 29.8 7 Sur 35 Sur 0 -- -- 31
2019-08-04 16:00:00 28.2 19 Sur 42 Sur 0 -- -- 35
2019-08-04 15:00:00 28.3 11 Sur 37 Sur 0 -- -- 36
2019-08-04 14:00:00 27.1 14 Sur 34 Sur 0 -- -- 36
2019-08-04 13:00:00 25.7 14 Sur 25 Sudoeste 0 -- -- 46
2019-08-04 12:00:00 24 4 Sudoeste 7 Sudoeste 0 -- -- 57
2019-08-04 11:00:00 21.5 3 Sur 8 Sur 0 -- -- 63
2019-08-04 10:00:00 19.4 3 Sudeste 6 Sudeste 0 -- -- 67
2019-08-04 09:00:00 16 3 Oeste 7 Nordeste 0 -- -- 81
2019-08-04 08:00:00 12.5 3 Nordeste 7 Norte 0 -- -- 90
2019-08-04 07:00:00 11.1 3 Norte 6 Norte 0 -- -- 96
2019-08-04 06:00:00 11.3 4 Norte 8 Norte 0 -- -- 97
2019-08-04 05:00:00 11.8 4 Norte 6 Norte 0 -- -- 97
2019-08-04 04:00:00 12.4 5 Norte 8 Norte 0 -- -- 96
2019-08-04 03:00:00 13 4 Norte 8 Nordeste 0 -- -- 95
2019-08-04 02:00:00 14.3 4 Norte 9 Norte 0 -- -- 91
2019-08-04 01:00:00 15.6 3 Norte 10 Nordeste 0 -- -- 89
2019-08-04 00:00:00 16.5 3 Norte 10 Norte 0 -- -- 88
2019-08-03 23:00:00 17.5 5 Norte 18 Noroeste 0 -- -- 84
2019-08-03 22:00:00 20.2 10 Norte 31 Noroeste 0 -- -- 73
2019-08-03 21:00:00 21.5 13 Noroeste 26 Noroeste 0 -- -- 69
2019-08-03 20:00:00 23.1 8 Noroeste 24 Noroeste 0 -- -- 65
2019-08-03 19:00:00 27.2 12 Noroeste 30 Noroeste 0 -- -- 54
2019-08-03 18:00:00 27.8 15 Noroeste 39 Noroeste 0 -- -- 52
2019-08-03 17:00:00 30.1 10 Noroeste 29 Sur 0 -- -- 43
2019-08-03 16:00:00 30.5 15 Sur 28 Sur 0 -- -- 27
2019-08-03 15:00:00 30.8 10 Sur 35 Sur 0 -- -- 27
2019-08-03 14:00:00 28.3 17 Sur 25 Sudoeste 0 -- -- 37
2019-08-03 13:00:00 27.3 17 Sudoeste 26 Sudoeste 0 -- -- 43
2019-08-03 12:00:00 25.8 3 Sudoeste 5 Sudeste 0 -- -- 53
2019-08-03 11:00:00 23 4 Sur 6 Sur 0 -- -- 61
2019-08-03 10:00:00 21 2 Sudeste 5 Sur 0 -- -- 66
2019-08-03 09:00:00 16.3 3 Norte 7 Norte 0 -- -- 80
2019-08-03 08:00:00 11.8 5 Norte 8 Norte 0 -- -- 98
2019-08-03 07:00:00 11.1 3 Noroeste 6 Norte 0 -- -- 98
2019-08-03 06:00:00 11.6 4 Norte 6 Norte 0 -- -- 98
2019-08-03 05:00:00 12.1 3 Norte 7 Norte 0 -- -- 97
2019-08-03 04:00:00 13 6 Norte 8 Norte 0 -- -- 96
2019-08-03 03:00:00 13.3 3 Norte 8 Norte 0 -- -- 95
2019-08-03 02:00:00 14.4 5 Norte 10 Norte 0 -- -- 92
2019-08-03 01:00:00 15.3 4 Norte 8 Norte 0 -- -- 91
2019-08-03 00:00:00 16.5 4 Norte 10 Norte 0 -- -- 88
2019-08-02 23:00:00 18 3 Norte 13 Noroeste 0 -- -- 83
2019-08-02 22:00:00 21.1 8 Noroeste 21 Noroeste 0 -- -- 69
2019-08-02 21:00:00 22.4 9 Noroeste 21 Noroeste 0 -- -- 63
2019-08-02 20:00:00 23.5 10 Noroeste 24 Noroeste 0 -- -- 60
2019-08-02 19:00:00 27 11 Noroeste 24 Noroeste 0 -- -- 50
2019-08-02 18:00:00 27.5 10 Noroeste 24 Noroeste 0 -- -- 50
2019-08-02 17:00:00 29.8 8 Noroeste 21 Sudoeste 0 -- -- 39
2019-08-02 16:00:00 29.4 14 Sur 24 Sur 0 -- -- 36
2019-08-02 15:00:00 29 13 Sur 18 Sudoeste 0 -- -- 40
2019-08-02 14:00:00 28.4 7 Sur 12 Sudoeste 0 -- -- 41
2019-08-02 13:00:00 26.9 4 Sur 8 Sudoeste 0 -- -- 41
2019-08-02 12:00:00 23.3 3 Sudeste 6 Sur 0 -- -- 44
2019-08-02 11:00:00 20.5 3 Sudeste 5 Este 0 -- -- 56
2019-08-02 10:00:00 17.9 3 Sudeste 5 Sur 0 -- -- 60
2019-08-02 09:00:00 13.6 2 Norte 7 Norte 0 -- -- 72
2019-08-02 08:00:00 8.5 5 Norte 7 Norte 0 -- -- 95
2019-08-02 07:00:00 7.9 4 Norte 7 Norte 0 -- -- 95
2019-08-02 06:00:00 8.5 4 Nordeste 8 Norte 0 -- -- 95
2019-08-02 05:00:00 9.1 5 Norte 8 Norte 0 -- -- 93
2019-08-02 04:00:00 9.8 5 Norte 8 Norte 0 -- -- 91
2019-08-02 03:00:00 10.8 6 Norte 10 Norte 0 -- -- 87
2019-08-02 02:00:00 11.5 6 Norte 10 Norte 0 -- -- 87
2019-08-02 01:00:00 12.6 7 Norte 12 Norte 0 -- -- 82
2019-08-02 00:00:00 14 8 Norte 14 Norte 0 -- -- 80
2019-08-01 23:00:00 15.7 4 Noroeste 19 Norte 0 -- -- 84
2019-08-01 22:00:00 17.8 10 Norte 27 Noroeste 0 -- -- 76
2019-08-01 21:00:00 19.1 11 Noroeste 21 Norte 0 -- -- 71
2019-08-01 20:00:00 20.8 6 Noroeste 23 Noroeste 0 -- -- 64
2019-08-01 19:00:00 25.2 9 Norte 28 Noroeste 0 -- -- 51
2019-08-01 18:00:00 24.4 19 Noroeste 33 Noroeste 0 -- -- 53
2019-08-01 17:00:00 24.8 19 Noroeste 32 Noroeste 0 -- -- 51
2019-08-01 16:00:00 24.8 19 Noroeste 30 Noroeste 0 -- -- 47
2019-08-01 15:00:00 25.3 17 Noroeste 29 Noroeste 0 -- -- 44
2019-08-01 14:00:00 26 9 Norte 17 Norte 0 -- -- 39
2019-08-01 13:00:00 26.9 4 Sudeste 6 Sudoeste 0 -- -- 39
2019-08-01 12:00:00 23.1 3 Sudeste 6 Sur 0 -- -- 52
2019-08-01 11:00:00 20.4 3 Sudeste 6 Sudeste 0 -- -- 56
2019-08-01 10:00:00 17.6 2 Sudeste 6 Nordeste 0 -- -- 64
2019-08-01 09:00:00 13 3 Nordeste 8 Nordeste 0 -- -- 75
2019-08-01 08:00:00 8.5 2 Norte 7 Norte 0 -- -- 97
2019-08-01 07:00:00 8 5 Norte 9 Norte 0 -- -- 98
2019-08-01 06:00:00 8.5 4 Norte 6 Nordeste 0 -- -- 98
2019-08-01 05:00:00 9.4 4 Nordeste 8 Norte 0 -- -- 96
2019-08-01 04:00:00 10.2 3 Norte 7 Norte 0 -- -- 96
2019-08-01 03:00:00 11 7 Norte 8 Norte 0 -- -- 95
2019-08-01 02:00:00 11.9 6 Norte 9 Nordeste 0 -- -- 89
2019-08-01 01:00:00 12.3 5 Norte 11 Nordeste 0 -- -- 91
2019-08-01 00:00:00 13.7 8 Nordeste 12 Nordeste 0 -- -- 87
2019-07-31 23:00:00 14.7 6 Norte 12 Norte 0 -- -- 85
2019-07-31 22:00:00 15.7 6 Norte 13 Norte 0 -- -- 82
2019-07-31 21:00:00 17.7 10 Norte 20 Norte 0 -- -- 73
2019-07-31 20:00:00 19.4 9 Norte 30 Norte 0 -- -- 67
2019-07-31 19:00:00 19.8 20 Norte 37 Noroeste 0 -- -- 64
2019-07-31 18:00:00 22 21 Norte 35 Norte 0 -- -- 56
2019-07-31 17:00:00 23 14 Noroeste 26 Noroeste 0 -- -- 52
2019-07-31 16:00:00 24.1 9 Norte 19 Noroeste 0 -- -- 49
2019-07-31 15:00:00 24.8 5 Sudoeste 11 Sur 0 -- -- 43
2019-07-31 14:00:00 24.9 5 Sur 10 Sur 0 -- -- 40
2019-07-31 13:00:00 20.8 8 Sur 12 Sur 0 -- -- 51
2019-07-31 12:00:00 20.3 4 Sur 7 Sur 0 -- -- 54
2019-07-31 11:00:00 18.5 4 Sudeste 9 Este 0 -- -- 58
2019-07-31 10:00:00 15.5 2 Noroeste 9 Norte 0 -- -- 65
2019-07-31 09:00:00 11.3 5 Nordeste 10 Nordeste 0 -- -- 81
2019-07-31 08:00:00 10.6 5 Norte 11 Norte 0 -- -- 82
2019-07-31 07:00:00 10.7 4 Norte 10 Norte 0 -- -- 82
2019-07-31 06:00:00 10.7 5 Norte 9 Norte 0 -- -- 82
2019-07-31 05:00:00 11.5 5 Norte 8 Nordeste 0 -- -- 81
2019-07-31 04:00:00 11.6 5 Norte 14 Nordeste 0 -- -- 81
2019-07-31 03:00:00 12.1 5 Norte 8 Noroeste 0 -- -- 81
2019-07-31 02:00:00 12.1 3 Norte 6 Norte 0 -- -- 81
2019-07-31 01:00:00 11.9 5 Norte 9 Norte 0 -- -- 82
2019-07-31 00:00:00 11.7 6 Nordeste 14 Norte 0 -- -- 83
2019-07-30 23:00:00 12.3 8 Norte 22 Noroeste 0 -- -- 81
2019-07-30 22:00:00 13.5 10 Noroeste 24 Noroeste 0 -- -- 76
2019-07-30 21:00:00 15.2 12 Noroeste 23 Noroeste 0 -- -- 68
2019-07-30 20:00:00 16.6 14 Noroeste 21 Noroeste 0 -- -- 59
2019-07-30 19:00:00 20.3 11 Noroeste 26 Noroeste 0 -- -- 48
2019-07-30 18:00:00 20.6 11 Noroeste 26 Norte 0 -- -- 47
2019-07-30 17:00:00 20.5 12 Noroeste 25 Noroeste 0 -- -- 47
2019-07-30 16:00:00 20.7 10 Noroeste 20 Norte 0 -- -- 45
2019-07-30 15:00:00 20 12 Noroeste 22 Noroeste 0 -- -- 44
2019-07-30 14:00:00 19 8 Norte 21 Norte 0 -- -- 45
2019-07-30 13:00:00 18.8 4 Sudeste 17 Norte 0 -- -- 45
2019-07-30 12:00:00 16.3 7 Norte 18 Norte 0 -- -- 49
2019-07-30 11:00:00 14.3 6 Norte 14 Norte 0 -- -- 56
2019-07-30 10:00:00 13.3 6 Norte 15 Noroeste 0 -- -- 59
2019-07-30 09:00:00 13.6 8 Norte 22 Norte 0 -- -- 58
2019-07-30 08:00:00 11.1 4 Norte 12 Nordeste 0 -- -- 75
2019-07-30 07:00:00 9.2 0 Calma 8 Oeste 0 -- -- 80
2019-07-30 06:00:00 9.7 3 Oeste 11 Oeste 0 -- -- 79
2019-07-30 05:00:00 8.9 3 Norte 11 Norte 0 -- -- 81
2019-07-30 04:00:00 10.4 4 Norte 9 Norte 0 -- -- 75
2019-07-30 03:00:00 11.2 5 Norte 12 Noroeste 0 -- -- 71
2019-07-30 02:00:00 11.1 3 Norte 12 Noroeste 0 -- -- 76
2019-07-30 01:00:00 11.5 5 Norte 20 Norte 0 -- -- 71
2019-07-30 00:00:00 11.4 9 Norte 27 Norte 0 -- -- 75
2019-07-29 23:00:00 12.6 8 Noroeste 22 Noroeste 0 -- -- 74
2019-07-29 22:00:00 13.5 9 Norte 26 Norte 0 -- -- 68
2019-07-29 21:00:00 14.6 12 Noroeste 31 Norte 0 -- -- 62
2019-07-29 20:00:00 15.9 14 Norte 31 Noroeste 0 -- -- 58
2019-07-29 19:00:00 17.2 14 Noroeste 33 Noroeste 0 -- -- 52
2019-07-29 18:00:00 18.5 12 Norte 27 Norte 0 -- -- 48
2019-07-29 17:00:00 17.8 17 Norte 35 Sur 0 -- -- 49
2019-07-29 16:00:00 19.1 19 Sur 38 Sudoeste 0 -- -- 44
2019-07-29 15:00:00 20.6 23 Sur 42 Sur 0 -- -- 42
2019-07-29 14:00:00 19.6 21 Sur 39 Sur 0 -- -- 45
2019-07-29 13:00:00 19 22 Sur 49 Sudoeste 0 -- -- 50
2019-07-29 12:00:00 18.3 18 Sudoeste 39 Sur 0 -- -- 55
2019-07-29 11:00:00 18.7 17 Sur 47 Sur 0 -- -- 56
2019-07-29 10:00:00 17.1 30 Sur 45 Sur 0 -- -- 70
2019-07-29 09:00:00 14.4 10 Sur 26 Sur 0 -- -- 83
2019-07-29 08:00:00 11.3 3 Oeste 9 Norte 0 -- -- 92
2019-07-29 07:00:00 10.3 3 Oeste 8 Norte 0 -- -- 92
2019-07-29 06:00:00 8.8 4 Norte 9 Norte 0 -- -- 94
2019-07-29 05:00:00 8.7 4 Norte 10 Nordeste 0 -- -- 95
2019-07-29 04:00:00 8.3 3 Norte 6 Nordeste 0 -- -- 96
2019-07-29 03:00:00 8.9 4 Norte 9 Norte 0 -- -- 94
2019-07-29 02:00:00 10.2 4 Noroeste 7 Norte 0 -- -- 91
2019-07-29 01:00:00 10.7 5 Norte 6 Norte 0 -- -- 87
2019-07-29 00:00:00 11.6 5 Norte 6 Norte 0 -- -- 82
2019-07-28 23:00:00 13 5 Norte 8 Noroeste 0 -- -- 76
2019-07-28 22:00:00 15 4 Norte 7 Noroeste 0 -- -- 65
2019-07-28 21:00:00 17.4 4 Noroeste 9 Noroeste 0 -- -- 57
2019-07-28 20:00:00 19.1 5 Noroeste 14 Noroeste 0 -- -- 50
2019-07-28 19:00:00 25.4 3 Oeste 26 Sur 0 -- -- 39
2019-07-28 18:00:00 25.1 13 Sur 28 Sur 0 -- -- 36
2019-07-28 17:00:00 24.5 14 Sur 27 Sur 0 -- -- 34
2019-07-28 16:00:00 23.4 16 Sudoeste 31 Sur 0 -- -- 35
2019-07-28 15:00:00 23.6 12 Sur 30 Sur 0 -- -- 35
2019-07-28 14:00:00 21.5 9 Sudeste 32 Sudoeste 0 -- -- 43
2019-07-28 13:00:00 20.2 13 Sudoeste 28 Sudoeste 0 -- -- 48
2019-07-28 12:00:00 19.5 5 Sudoeste 18 Sur 0 -- -- 56
2019-07-28 11:00:00 16.6 4 Sudeste 7 Sudeste 0 -- -- 61
2019-07-28 10:00:00 13.4 2 Nordeste 6 Norte 0 -- -- 69
2019-07-28 09:00:00 10.7 3 Norte 10 Norte 0 -- -- 77
2019-07-28 08:00:00 6.4 4 Norte 6 Norte 0 -- -- 96
2019-07-28 07:00:00 5.2 5 Nordeste 9 Norte 0 -- -- 97
2019-07-28 06:00:00 5.6 4 Nordeste 8 Nordeste 0 -- -- 98
2019-07-28 05:00:00 6.1 2 Norte 8 Norte 0 -- -- 97
2019-07-28 04:00:00 6.7 3 Nordeste 8 Norte 0 -- -- 97
2019-07-28 03:00:00 7.8 3 Norte 8 Norte 0 -- -- 96
2019-07-28 02:00:00 8.7 5 Norte 9 Nordeste 0 -- -- 91
2019-07-28 01:00:00 9.7 3 Norte 7 Nordeste 0 -- -- 92
2019-07-28 00:00:00 11.6 3 Norte 9 Nordeste 0 -- -- 86
2019-07-27 23:00:00 12.4 4 Norte 12 Nordeste 0 -- -- 81
2019-07-26 12:00:00 -- -- -- -- -- -- -- -- --
2019-07-26 11:00:00 15.4 3 Norte 18 Norte 0 -- -- 73
2019-07-26 10:00:00 14.7 2 Sur 13 Sur 0 -- -- 75
2019-07-26 09:00:00 13.1 2 Nordeste 10 Este 0 -- -- 85
2019-07-26 08:00:00 12.6 3 Sudeste 9 Este 0 -- -- 91
2019-07-26 07:00:00 12.3 5 Norte 10 Norte 0 -- -- 90
2019-07-26 06:00:00 12.5 2 Nordeste 8 Nordeste 0 -- -- 94
2019-07-26 05:00:00 12.9 3 Nordeste 8 Norte 0 -- -- 93
2019-07-26 04:00:00 13.7 2 Este 9 Este 0 -- -- 95
2019-07-26 03:00:00 14.3 5 Sur 10 Norte 0 -- -- 94
2019-07-26 02:00:00 14.7 2 Este 7 Norte 0 -- -- 96
2019-07-26 01:00:00 15.4 0 Calma 7 Norte 0 -- -- 96
2019-07-26 00:00:00 15.9 0 Calma 6 Oeste 0.2 -- -- 96
2019-07-25 23:00:00 15.8 6 Sudoeste 16 Sudoeste 2.8 -- -- 97
2019-07-25 22:00:00 17.1 13 Sudoeste 26 Sur 6 -- -- 95
2019-07-25 21:00:00 17.6 3 Noroeste 8 Norte 0.4 -- -- 91
2019-07-25 20:00:00 19.1 3 Norte 9 Norte 0 -- -- 82
2019-07-25 19:00:00 20.4 4 Noroeste 31 Sur 0 -- -- 80
2019-07-25 18:00:00 23.2 18 Sur 33 Sur 0 -- -- 55
2019-07-25 17:00:00 24.1 9 Sudoeste 41 Sur 0 -- -- 52
2019-07-25 16:00:00 25.6 23 Sur 39 Sur 0 -- -- 46
2019-07-25 15:00:00 28 10 Sur 32 Sur 0 -- -- 44
2019-07-25 14:00:00 27.6 17 Sur 35 Sur 0 -- -- 41
2019-07-25 13:00:00 27.1 18 Sur 30 Sur 0 -- -- 43
2019-07-25 12:00:00 25.6 2 Sudeste 5 Oeste 0 -- -- 48
2019-07-25 11:00:00 21.4 3 Sudeste 4 Sudeste 0 -- -- 58
2019-07-25 10:00:00 17 3 Sur 5 Sur 0 -- -- 69
2019-07-25 09:00:00 14.2 3 Norte 6 Norte 0 -- -- 74
2019-07-25 08:00:00 12.3 3 Nordeste 8 Nordeste 0 -- -- 87
2019-07-25 07:00:00 10 4 Norte 6 Nordeste 0 -- -- 96
2019-07-25 06:00:00 10.8 4 Norte 7 Nordeste 0 -- -- 94
2019-07-25 05:00:00 11.6 3 Norte 7 Norte 0 -- -- 93
2019-07-25 04:00:00 12.4 4 Norte 6 Norte 0 -- -- 93
2019-07-25 03:00:00 13.4 3 Norte 6 Nordeste 0 -- -- 92
2019-07-25 02:00:00 14.6 3 Noroeste 7 Norte 0 -- -- 92
2019-07-25 01:00:00 15.8 3 Norte 6 Nordeste 0 -- -- 89
2019-07-25 00:00:00 17.2 4 Norte 6 Norte 0 -- -- 85
2019-07-24 23:00:00 18.3 0 Calma 4 Sur 0 -- -- 83
2019-07-24 22:00:00 20.2 0 Calma 6 Sur 0 -- -- 79
2019-07-24 21:00:00 23.7 4 Sudoeste 9 Noroeste 0 -- -- 62
2019-07-24 20:00:00 26.2 4 Oeste 14 Noroeste 0 -- -- 49
2019-07-24 19:00:00 31 6 Oeste 15 Oeste 0 -- -- 40
2019-07-24 18:00:00 28.6 10 Oeste 22 Sur 0 -- -- 47
2019-07-24 17:00:00 29.9 10 Sudoeste 24 Sudoeste 0 -- -- 43
2019-07-24 16:00:00 30.9 8 Sudoeste 24 Sudoeste 0 -- -- 40
2019-07-24 15:00:00 30.2 14 Sudoeste 26 Sudoeste 0 -- -- 41
2019-07-24 14:00:00 28.5 14 Sur 31 Sur 0 -- -- 44
2019-07-24 13:00:00 29.1 4 Sur 10 Sudoeste 0 -- -- 52
2019-07-24 12:00:00 25.6 3 Sur 6 Sudoeste 0 -- -- 56
2019-07-24 11:00:00 23.2 3 Sudeste 5 Este 0 -- -- 62
2019-07-24 10:00:00 20.3 3 Sudeste 6 Nordeste 0 -- -- 74
2019-07-24 09:00:00 16.9 2 Noroeste 6 Nordeste 0 -- -- 84
2019-07-24 08:00:00 13.2 2 Norte 6 Norte 0 -- -- 98
2019-07-24 07:00:00 12.6 2 Norte 8 Nordeste 0 -- -- 99
2019-07-24 06:00:00 12.7 5 Norte 7 Norte 0 -- -- 99
2019-07-24 05:00:00 13.2 3 Norte 7 Nordeste 0 -- -- 98
2019-07-24 04:00:00 13.7 4 Nordeste 8 Norte 0 -- -- 98
2019-07-24 03:00:00 14.1 2 Este 12 Norte 0 -- -- 98
2019-07-24 02:00:00 14.3 6 Norte 12 Nordeste 0 -- -- 97
2019-07-24 01:00:00 14.3 4 Norte 8 Nordeste 0 -- -- 96
2019-07-24 00:00:00 15 5 Norte 9 Norte 0 -- -- 96
2019-07-23 23:00:00 15.4 5 Norte 10 Norte 0 -- -- 95
2019-07-23 22:00:00 16.7 3 Nordeste 30 Oeste 6.2 -- -- 92
2019-07-23 21:00:00 21.3 22 Sur 47 Sur 0.2 -- -- 68
2019-07-23 20:00:00 25.8 15 Noroeste 27 Noroeste 0 -- -- 55
2019-07-23 19:00:00 30.8 6 Oeste 21 Sur 0 -- -- 46
2019-07-23 18:00:00 31.7 4 Sur 10 Oeste 0 -- -- 38
2019-07-23 17:00:00 32.2 3 Sur 16 Nordeste 0 -- -- 37
2019-07-23 16:00:00 27.5 6 Este 30 Sur 0 -- -- 48
2019-07-23 15:00:00 28.3 16 Sur 44 Sur 0 -- -- 41
2019-07-23 14:00:00 30.8 8 Sur 38 Sur 0 -- -- 34
2019-07-23 13:00:00 29.9 14 Sur 33 Sur 0 -- -- 36
2019-07-23 12:00:00 26.5 8 Sur 13 Oeste 0 -- -- 52
2019-07-23 11:00:00 23.2 6 Nordeste 31 Nordeste 0 -- -- 54
2019-07-23 10:00:00 22 4 Sur 8 Sudoeste 0 -- -- 65
2019-07-23 09:00:00 16.2 3 Norte 12 Nordeste 0 -- -- 76
2019-07-23 08:00:00 14.2 3 Noroeste 9 Nordeste 0 -- -- 87
2019-07-23 07:00:00 12.6 4 Norte 8 Norte 0 -- -- 92
2019-07-23 06:00:00 13 4 Nordeste 9 Nordeste 0 -- -- 90
2019-07-23 05:00:00 13.7 4 Norte 6 Norte 0 -- -- 89
2019-07-23 04:00:00 14.6 3 Norte 8 Norte 0 -- -- 85
2019-07-23 03:00:00 15.4 5 Norte 11 Nordeste 0 -- -- 81
2019-07-23 02:00:00 17 5 Norte 16 Norte 0 -- -- 76
2019-07-23 01:00:00 20.8 8 Norte 15 Este 0.2 -- -- 55
2019-07-23 00:00:00 22.4 9 Nordeste 29 Nordeste 0 -- -- 50
2019-07-22 23:00:00 22.5 9 Noroeste 38 Sur 0 -- -- 51
2019-07-22 22:00:00 23.9 10 Sudeste 25 Sur 0 -- -- 51
2019-07-22 21:00:00 22.1 0 Calma 8 Norte 0 -- -- 86
2019-07-22 20:00:00 20.7 3 Noroeste 9 Nordeste 0 -- -- 89
2019-07-22 19:00:00 20.9 2 Nordeste 13 Norte 1 -- -- 86
2019-07-22 18:00:00 24.9 9 Sur 23 Sur 0.2 -- -- 71
2019-07-22 17:00:00 29.6 10 Oeste 21 Sudoeste 0 -- -- 42
2019-07-22 16:00:00 35.1 3 Este 10 Sudeste 0 -- -- 29
2019-07-22 15:00:00 35.7 3 Sudeste 12 Sur 0 -- -- 30
2019-07-22 14:00:00 31.7 8 Sur 14 Sur 0 -- -- 44
2019-07-22 13:00:00 30.4 5 Sur 8 Sur 0 -- -- 52
2019-07-22 12:00:00 27.4 4 Sudoeste 6 Sur 0 -- -- 55
2019-07-22 11:00:00 24.9 3 Sudeste 5 Sur 0 -- -- 58
2019-07-22 10:00:00 21.3 2 Sur 5 Sudeste 0 -- -- 67
2019-07-22 09:00:00 16.8 2 Nordeste 5 Norte 0 -- -- 83
2019-07-22 08:00:00 12.6 4 Norte 6 Norte 0 -- -- 97
2019-07-22 07:00:00 11.5 4 Norte 6 Nordeste 0 -- -- 98
2019-07-22 06:00:00 12 4 Norte 6 Norte 0 -- -- 98
2019-07-22 05:00:00 12.5 4 Norte 7 Norte 0 -- -- 97
2019-07-22 04:00:00 13.2 4 Norte 6 Norte 0 -- -- 97
2019-07-22 03:00:00 14 5 Noroeste 9 Norte 0 -- -- 95
2019-07-22 02:00:00 15.2 6 Nordeste 10 Norte 0 -- -- 91
2019-07-22 01:00:00 15.7 7 Norte 11 Norte 0 -- -- 90
2019-07-22 00:00:00 17.2 7 Norte 11 Norte 0 -- -- 88
2019-07-21 23:00:00 18 6 Norte 15 Norte 0 -- -- 85
2019-07-21 22:00:00 19.1 9 Norte 19 Noroeste 0 -- -- 81
2019-07-21 21:00:00 20.7 12 Norte 32 Noroeste 0 -- -- 75
2019-07-21 20:00:00 22.5 17 Norte 33 Noroeste 0 -- -- 69
2019-07-21 19:00:00 25.8 19 Norte 35 Norte 0 -- -- 59
2019-07-21 18:00:00 26.5 21 Norte 35 Norte 0 -- -- 56
2019-07-21 17:00:00 27.5 18 Norte 35 Noroeste 0 -- -- 51
2019-07-21 16:00:00 31 13 Sur 26 Sur 0 -- -- 27
2019-07-21 15:00:00 29.9 13 Sur 30 Sur 0 -- -- 27
2019-07-21 14:00:00 28.6 13 Sudoeste 22 Sur 0 -- -- 37
2019-07-21 13:00:00 27.4 4 Sudeste 13 Sudoeste 0 -- -- 42
2019-07-21 12:00:00 24 4 Sur 8 Sur 0 -- -- 55
2019-07-21 11:00:00 22.3 3 Sur 9 Sur 0 -- -- 58
2019-07-21 10:00:00 20 4 Sudeste 12 Nordeste 0 -- -- 65
2019-07-21 09:00:00 15.2 5 Este 13 Nordeste 0 -- -- 83
2019-07-21 08:00:00 14.2 5 Nordeste 10 Nordeste 0 -- -- 85
2019-07-21 07:00:00 14.3 4 Nordeste 8 Nordeste 0 -- -- 84
2019-07-21 06:00:00 14.4 5 Norte 7 Norte 0 -- -- 84
2019-07-21 05:00:00 14.1 5 Norte 8 Norte 0 -- -- 86
2019-07-21 04:00:00 13.4 4 Norte 8 Norte 0 -- -- 89
2019-07-21 03:00:00 13 5 Norte 10 Norte 0 -- -- 91
2019-07-21 02:00:00 13.3 5 Norte 10 Norte 0 -- -- 90
2019-07-21 01:00:00 14.5 6 Norte 13 Norte 0 -- -- 88
2019-07-21 00:00:00 16.6 5 Norte 24 Norte 0 -- -- 82
2019-07-20 23:00:00 17.1 14 Norte 24 Noroeste 0 -- -- 80
2019-07-20 22:00:00 18.2 12 Norte 30 Noroeste 0 -- -- 77
2019-07-20 21:00:00 19.3 18 Noroeste 37 Norte 0 -- -- 74
2019-07-20 20:00:00 20.3 24 Noroeste 42 Noroeste 0 -- -- 72
2019-07-20 19:00:00 24.4 18 Noroeste 30 Noroeste 0 -- -- 59
2019-07-20 18:00:00 25.8 17 Noroeste 30 Noroeste 0 -- -- 54
2019-07-20 17:00:00 26.7 15 Noroeste 30 Noroeste 0 -- -- 51
2019-07-20 16:00:00 29.9 7 Sudoeste 28 Sur 0 -- -- 37
2019-07-20 15:00:00 27.7 15 Sudoeste 28 Sur 0 -- -- 43
2019-07-20 14:00:00 27.3 16 Sur 23 Sur 0 -- -- 40
2019-07-20 13:00:00 26.9 11 Sur 19 Sudoeste 0 -- -- 40
2019-07-20 12:00:00 25.4 5 Sur 8 Sudoeste 0 -- -- 51
2019-07-20 11:00:00 23 3 Sudeste 8 Sudoeste 0 -- -- 59
2019-07-20 10:00:00 20 3 Sur 6 Sur 0 -- -- 67
2019-07-20 09:00:00 16.9 2 Nordeste 5 Norte 0 -- -- 77
2019-07-20 08:00:00 11.9 4 Norte 6 Norte 0 -- -- 97
2019-07-20 07:00:00 11.3 3 Nordeste 8 Norte 0 -- -- 97
2019-07-20 06:00:00 11.8 3 Norte 10 Norte 0 -- -- 96
2019-07-20 05:00:00 12.2 3 Norte 6 Norte 0 -- -- 96
2019-07-20 04:00:00 13.1 6 Norte 8 Norte 0 -- -- 95
2019-07-20 03:00:00 14 3 Norte 8 Norte 0 -- -- 94
2019-07-20 02:00:00 14.6 4 Norte 6 Norte 0 -- -- 92
2019-07-20 01:00:00 16.2 5 Norte 9 Norte 0 -- -- 88
2019-07-20 00:00:00 17.7 2 Norte 8 Sur 0 -- -- 85
2019-07-19 23:00:00 19.5 4 Oeste 16 Noroeste 0 -- -- 78
2019-07-19 22:00:00 21.2 4 Norte 20 Noroeste 0 -- -- 70
2019-07-19 21:00:00 23.1 12 Noroeste 21 Noroeste 0 -- -- 65
2019-07-19 20:00:00 24.4 9 Noroeste 23 Noroeste 0 -- -- 60
2019-07-19 19:00:00 25.8 10 Noroeste 22 Noroeste 0 -- -- 53
2019-07-19 18:00:00 29 10 Noroeste 36 Sur 0 -- -- 47
2019-07-19 17:00:00 30.3 24 Sur 45 Sur 0 -- -- 29
2019-07-19 16:00:00 30.9 10 Sur 36 Sur 0 -- -- 27
2019-07-19 15:00:00 30.2 17 Sur 35 Sur 0 -- -- 32
2019-07-19 14:00:00 28.7 15 Sur 28 Sur 0 -- -- 37
2019-07-19 13:00:00 28.4 4 Oeste 14 Sudoeste 0 -- -- 42
2019-07-19 12:00:00 25.6 3 Sur 8 Sudoeste 0 -- -- 48
2019-07-19 11:00:00 22.1 3 Sur 7 Sur 0 -- -- 49
2019-07-19 10:00:00 18.8 2 Este 5 Sur 0 -- -- 57
2019-07-19 09:00:00 14.9 2 Nordeste 7 Norte 0 -- -- 67
2019-07-19 08:00:00 10.1 4 Norte 9 Norte 0 -- -- 86
2019-07-19 07:00:00 8 5 Norte 7 Norte 0 -- -- 94
2019-07-19 06:00:00 8.1 6 Norte 9 Norte 0 -- -- 93
2019-07-19 05:00:00 9.4 5 Norte 11 Norte 0 -- -- 91
2019-07-19 04:00:00 9.8 3 Norte 13 Norte 0 -- -- 87
2019-07-19 03:00:00 10.9 5 Norte 12 Norte 0 -- -- 92
2019-07-19 02:00:00 12.1 5 Norte 9 Norte 0 -- -- 87
2019-07-19 01:00:00 13.1 5 Norte 12 Norte 0 -- -- 83
2019-07-19 00:00:00 15.4 6 Norte 12 Norte 0 -- -- 83